CW9987 Weather Reports


time (UTC)temp
C
wind
direction
speed
KPH
gust
KPH
rain 1hr
cm
rain 24hr
cm
rain mn
cm
humidity
%
barometer
mb
20260503054549 5 168 4.8 11.3 0.00 0.00 0.00 52 1014.1
20260503053051 4 254 3.2 11.3 0.00 0.00 0.00 53 1014.2
20260503051549 4 207 3.2 8.0 0.00 0.00 0.00 53 1014.4
20260503050056 4 183 1.6 6.4 0.00 0.00 0.00 54 1014.6
20260503044548 4 170 3.2 9.7 0.00 0.00 0.00 53 1014.6
20260503043042 5 178 3.2 8.0 0.00 0.00 0.00 53 1014.8
20260503041549 5 203 1.6 8.0 0.00 0.00 0.00 54 1014.9
20260503040100 5 228 3.2 9.7 0.00 0.00 0.00 54 1015.1
20260503034559 5 200 3.2 9.7 0.00 0.00 0.00 54 1015.2
20260503033046 5 217 1.6 8.0 0.00 0.00 0.00 54 1015.4
20260503031552 5 197 1.6 8.0 0.00 0.00 0.00 54 1015.4
20260503030116 5 237 3.2 8.0 0.00 0.00 0.00 54 1015.5
20260503024549 5 202 3.2 6.4 0.00 0.00 0.00 55 1015.6
20260503023049 5 231 4.8 11.3 0.00 0.00 0.00 57 1015.7
20260503021556 5 232 3.2 6.4 0.00 0.00 0.00 57 1015.8
20260503020050 5 218 3.2 6.4 0.00 0.00 0.00 57 1015.8
20260503014613 5 239 3.2 6.4 0.00 0.00 0.00 57 1015.8
20260503013053 5 224 1.6 4.8 0.00 0.00 0.00 55 1015.8
20260503011553 5 248 3.2 6.4 0.00 0.00 0.00 53 1015.9
20260503010103 6 236 3.2 11.3 0.00 0.00 0.00 51 1015.8
20260503004550 7 211 4.8 9.7 0.00 0.00 0.00 50 1015.9
20260503003053 7 259 4.8 9.7 0.00 0.00 0.00 46 1015.8
20260503001600 7 266 6.4 12.9 0.00 0.00 0.00 44 1015.7
20260503000110 8 271 8.0 16.1 0.00 0.00 0.00 43 1015.9
20260502234555 8 255 6.4 14.5 0.00 0.00 0.00 41 1016.0
20260502233050 8 254 8.0 16.1 0.00 0.00 0.00 40 1016.0
20260502231542 9 254 8.0 19.3 0.00 0.00 0.00 40 1016.1
20260502230050 9 269 11.3 19.3 0.00 0.00 0.00 38 1016.1
20260502224549 10 289 9.7 19.3 0.00 0.00 0.00 38 1016.2
20260502223049 10 252 12.9 20.9 0.00 0.00 0.00 35 1016.2
20260502221542 10 297 11.3 20.9 0.00 0.00 0.00 37 1016.3
20260502220051 10 290 9.7 22.5 0.00 0.00 0.00 36 1016.2
20260502214555 10 286 8.0 27.4 0.00 0.00 0.00 39 1016.3
20260502213049 10 257 9.7 24.1 0.00 0.00 0.00 40 1016.4
20260502211551 10 273 14.5 27.4 0.00 0.00 0.00 37 1016.4
20260502210047 10 280 14.5 25.7 0.00 0.00 0.00 38 1016.6
20260502204547 10 277 11.3 20.9 0.00 0.00 0.00 39 1016.6
20260502203105 10 264 14.5 30.6 0.00 0.00 0.00 41 1016.8
20260502201541 10 328 19.3 27.4 0.00 0.00 0.00 42 1017.1
20260502200047 10 286 14.5 27.4 0.00 0.00 0.00 42 1017.2
20260502194547 10 237 11.3 41.8 0.00 0.00 0.00 44 1017.3
20260502193046 9 306 12.9 24.1 0.00 0.00 0.00 44 1017.5
20260502191558 9 311 12.9 29.0 0.00 0.00 0.00 44 1017.5
20260502190054 9 284 19.3 32.2 0.00 0.00 0.00 45 1017.7
20260502184549 9 306 16.1 37.0 0.00 0.00 0.00 46 1017.7
20260502183048 9 301 14.5 37.0 0.00 0.00 0.00 46 1017.9
20260502181607 10 269 12.9 29.0 0.00 0.00 0.00 47 1017.9
20260502163049 8 295 8.0 22.5 0.00 0.00 0.00 56 1018.6
20260502161550 7 280 11.3 24.1 0.00 0.00 0.00 50 1018.7
20260502151602 6 280 4.8 12.9 0.00 0.00 0.00 53 1018.9
20260502123042 3 337 6.4 12.9 0.00 0.00 0.00 76 1019.2
20260502121550 3 330 4.8 12.9 0.00 0.00 0.00 78 1019.0
20260502114550 1 0 0.0 0.0 0.00 0.00 0.00 86 1019.0
20260502113042 -1 0 0.0 0.0 0.00 0.00 0.00 89 1018.8
20260502111543 -1 0 0.0 0.0 0.00 0.00 0.00 86 1018.9
20260502110046 -1 0 0.0 0.0 0.00 0.00 0.00 85 1018.7
20260502104549 -1 0 0.0 3.2 0.00 0.00 0.00 84 1018.7
20260502103045 -1 0 0.0 3.2 0.00 0.00 0.00 83 1018.6
20260502101551 0 0 0.0 0.0 0.00 0.00 0.00 84 1018.6
20260502080103 2 304 1.6 3.2 0.00 0.00 0.00 71 1017.8
20260502070049 2 313 1.6 3.2 0.00 0.00 0.00 70 1018.0
20260502064558 1 333 1.6 3.2 0.00 0.00 0.00 71 1018.1